Tracking 31023 objects as of 19-Jul-2025
HD Live streaming from Space Station
objects crossing your sky now

STARLINK-1215

Track STARLINK-1215 now!
10-day predictions
STARLINK-1215 is classified as:


NORAD ID: 45225
Int'l Code: 2020-012AZ
Perigee: 553.6 km
Apogee: 555.1 km
Inclination: 53.1 °
Period: 95.6 minutes
Semi major axis: 6925 km
RCS: Unknown
Launch date: February 17, 2020
Source: United States (US)
Launch site: AIR FORCE EASTERN TEST RANGE (AFETR)
Your satellite tracking list
Your tracking list is empty




NASA's NSSDC Master Catalog

Two Line Element Set (TLE):
1 45225U 20012AZ  25200.62641281 -.00000284  00000-0 -19118-6 0  9994
2 45225  53.0564 332.8803 0001036  80.9446 279.1660 15.06399987300226
Source of the keplerian elements: AFSPC